Showing default

TIANMU-1 09, 57401

Orbit data source: Space-Track

TIANMU-1 09, 57401 is a payload satellite owned by Hangtian Tianmu (CN) in SSO that was launched on Thu, 20 Jul 2023 UTC via a KUAIZHOU-1A launch vehicle from the Jiuquan Satellite Launch Center, China (JSC). Payload-class satellites include a variety of spacecraft equipped with specific instruments for various scientific and technological missions. These include communications satellites like Starlink; space stations such as the ISS; scientific satellites like the Hubble; Earth observation satellites from companies like Planet Labs, Umbra, and HawkEye 360; GPS; miniature CubeSats for education and research; and military/defense satellites.

Loading next visibility...
Identifier
57401, 2023-101C
Orbit
SSO
Country
Flag of CNCN / PRC
Related business
Manufacturer
Hangtian Tianmu
Mission
Operational Commercial Weather
Bus & Motor
TIANMU, Unknown motor
Mass
50 kg wet, ~50 kg dry
Launch date (UTC)
2023-07-20 (3 years ago)
Launch vehicle
KUAIZHOU-1A
Launch site
Jiuquan Satellite Launch Center, China (JSC)
Object type
Payload
Rocket body
Debris
Shape & HBR
Box, 0.8 m
Radar Cross Section
2.000 m², Large (>1 m²)

Expand to show TLE details & history
Last TLE update: 23 hours ago

TLE from 23 hours ago
0 TIANMU-1 09
1 57401U 23101C   26172.49791285  .00005141  00000-0  18018-3 0  9999
2 57401  97.2536 222.2510 0004785 117.1207 243.0522 15.29886210162300
Epoch: 2026-06-21T11:56Z
TLE epoch observation values (Epoch: 2026-06-21T11:56:59.670Z)
Latitude
-0.00005°
Longitude
133.30506°
Altitude
480.748 km
Speed
7.624 km/s
True Right ascension
14h 49m 00s
True Declination
0° 00' 00"
Sunlit
Object was in full shadow at epoch
Visualization orbit readout
Latitude
Unknown
Longitude
Unknown
Altitude
Unknown
Speed
Unknown
Apparent Right ascension
Unknown
Apparent Declination
Unknown
Sunlit
N/A
Visualization observer readout
Local Sidereal Time
21:33:22
Azimuth
Unknown
Elevation
Unknown
Doppler factor
Unknown
Orbital elements
Apogee altitude
476.377 km
Perigee altitude
469.82 km
Semi-major axis
6,851.235 km
Eccentricity
0.00048
Inclination
97.2536°
RAAN
222.251°
Arg. of periapsis
117.1207°
True anomaly
243.00333°
Mean anomaly
243.0522°
Eccentric anomaly
243.02777°
Mean motion
3.82728 °/min
Orbital period
94.06 mins
BSTAR
0.00018018
Loading maneuver chart data...
Computing Atmospheric mass density...
Loading historical data...
Loading historical data...
Loading historical data...
Loading historical data...
Loading historical data...
Loading historical data...
Loading historical data...
Other satellites on launch #101 in the year 2023 (2023-07-20 UTC)

Documentation

Showing up to 5 results
|